Regional Weather Roundup
Issued by NWS Charleston, SC

Current Version | Previous Version | Graphics & Text | Print | Product List | Glossary On
Versions: 1 2 3 4 5 6 7 8 9 10 11 12 13 14 15 16 17 18 19 20 21 22 23 24 25 26 27 28 29 30 31 32 33 34 35 36 37 38 39 40 41 42 43 44 45 46 47 48 49 50
000
ASUS42 KCHS 270811
RWRCHS

REGIONAL WEATHER ROUNDUP
NATIONAL WEATHER SERVICE CHARLESTON SC
300 AM EST FRI FEB 27 2015

NOTE: "FAIR" INDICATES FEW OR NO CLOUDS BELOW 12,000 FEET WITH NO
SIGNIFICANT WEATHER AND/OR OBSTRUCTIONS TO VISIBILITY.

NOT ALL STATIONS ARE QUALITY CONTROLLED BY THE NATIONAL
WEATHER SERVICE. USE DATA WITH CAUTION...ESPECIALLY
DEWPOINT OBSERVATIONS.

SCZ027-030-031-034>040-042>050-270900-
...SOUTHEAST SOUTH CAROLINA...

CITY           SKY/WX    TMP DP  RH WIND       PRES   REMARKS
N CHARLESTON   CLOUDY    39  34  82 N6        30.20R WCI  35
WATERFRONT PRK   N/A     41 N/A N/A N9          N/A
MOUNT PLEASANT LGT RAIN  37  36  93 N3        30.20R
PINOPOLIS        N/A     41  34  75 NE8       30.12R
MONCKS CORNER  FAIR      39  34  81 NE3       30.20R
SUMMERVILLE    NOT AVBL
BEAUFORT MCAS  CLOUDY    40  36  86 N5        30.20R WCI  37
BEAUFORT ARPT  FAIR      39  37  93 CALM      30.19S
HILTON HEAD IS CLOUDY    43  37  81 N7        30.20R
WALTERBORO     CLOUDY    36  36 100 CALM      30.20S
ALLENDALE      CLOUDY    39  39 100 CALM      30.19S

...SOUTHERN MIDLANDS AND PEE DEE...

CITY           SKY/WX    TMP DP  RH WIND       PRES   REMARKS
GEORGETOWN     NOT AVBL
KINGSTREE      NOT AVBL
ORANGEBURG     CLOUDY    36  33  89 N3        30.20R
BARNWELL       CLOUDY    37  37 100 CALM      30.20S
AIKEN          CLOUDY    39  39 100 CALM      30.22R
MANNING        FAIR     N/A N/A N/A CALM      30.21S FOG
COLUMBIA       CLOUDY    35  33  92 CALM      30.20R FOG
SUMTER         CLOUDY    32  29  88 N5        30.18S WCI  28
FLORENCE       CLOUDY    34  30  85 N6        30.20R WCI  29
MYRTLE BEACH   CLOUDY    37  32  81 N5        30.22R WCI  34
N MYRTLE BEACH CLOUDY    35  32  88 N5        30.19R WCI  31

$$

GAZ063-065-086>088-099>101-113>116-118-119-134>141-150-270900-
...SOUTHEAST GEORGIA...

CITY           SKY/WX    TMP DP  RH WIND       PRES   REMARKS
SAVANNAH ARPT  CLOUDY    41  36  82 NE6       30.19R
HUNTER AAF     CLOUDY    42  38  86 N5        30.16R
FORT STEWART   CLOUDY    40  38  93 N1        30.16S
STATESBORO     CLOUDY    42  42 100 CALM      30.18F
SYLVANIA       CLOUDY    41  41  99 CALM      30.20S
CLAXTON        CLOUDY    41  41 100 CALM      30.19S

...CSRA...CENTRAL AND FAR SOUTHEAST GEORGIA...

CITY           SKY/WX    TMP DP  RH WIND       PRES   REMARKS
THOMSON        CLOUDY    39  39 100 CALM      30.23S
AUGUSTA-BUSH   CLOUDY    41  38  89 CALM      30.20R
AUGUSTA-DANIEL CLOUDY    43  38  82 NW3       30.19R
SWAINSBORO     CLOUDY    43  32  65 CALM      30.20R
VIDALIA        CLOUDY    43  37  81 NW6       30.19R
EASTMAN        CLOUDY    41  36  83 CALM      30.23R
HAZLEHURST     CLOUDY    45  44  97 N9        30.18R
ALMA           CLOUDY    44  41  89 CALM      30.18R
WAYCROSS       CLOUDY    46  45  95 CALM      30.18R
JESUP          CLOUDY    45  43  93 CALM      30.18R
BAXLEY         CLOUDY    45  43  93 CALM      30.18R
BRUNSWICK      CLOUDY    45  41  87 CALM      30.18R
SAINT SIMONS   CLOUDY    46  40  79 N3        30.17R

$$

SCZ027-028-034-036>038-045-046-048>050-GAZ119-141-270900-
...LAKE AND SUPPLEMENTAL COASTAL OBSERVATIONS...

STATION/POSITION TIME  TEMP    WIND        PRES    WAVE   SWELL
                       AIR SEA DIR/SP/G            HT/PER HT/PER/DIR
                 (UTC) (F)     (DEG/KT/KT) (MB)    (FT/S) (FT/S/D)
UPR LAKE MARION  NOT AVBL
WINYAH BAY       NOT AVBL
LAKE MURRAY      0700   38      60/  2/  3 1022.0R
ACE BASIN NERRS  NOT AVBL
FORT PULASKI     0706   43 49   10/  7/  8 1022.0R
SAPELO ISLAND    0700   44      20/  4     1021.0S

$$

ANZ835-935-AMZ111-154-330-350-352-354-370-450-454-472-270900-
...C-MAN AND BUOY OBSERVATIONS...

STATION/POSITION TIME  TEMP    WIND        PRES    WAVE   SWELL
                       AIR SEA DIR/SP/G            HT/PER HT/PER/DIR
                 (UTC) (F)     (DEG/KT/KT) (MB)    (FT/S) (FT/S/D)
BUOY 41004       0750   46 65  360/ 10/ 14 1020.6R   4/ 9   3/ 9
BUOY 41008       0750   47 53   20/ 12/ 16 1021.0R   4/10   2/130/10
FOLLY BEACH CMAN 0800   40      10/ 10/ 11 1022.6R
CAPERS NEARSHORE NOT AVBL
FRIPP NEARSHORE  0700   44      50/ 10/ 12 1021.0R


STATION/POSITION TIME  TEMP    WIND        PRES    WAVE   SWELL
                       AIR SEA DIR/SP/G            HT/PER HT/PER/DIR
                 (UTC) (F)     (DEG/KT/KT) (MB)    (FT/S) (FT/S/D)
5E ST. MARYS GA  0721      53                N/A     3/ 4   2/100/11
FRYING PAN BUOY  0750   43 60  360/ 12/ 16 1021.3R   6/ 9   5/160/ 9
BUOY 41025       NOT AVBL
CAPE LOOKOUT NC  0800   34     360/  9/ 11 1021.1R
BUOY 41002       0750   62 70  320/ 12/ 16 1017.4R   9/ 9   8/200/ 9
BUOY 41010       0720   67 74   30/ 12/ 16 1016.8F
ST AUGUSTINE FL  0800   50      10/ 16/ 17 1020.3F


$$


USA.gov is the U.S. government's official web portal to all federal, state and local government web resources and services.